| time (UTC) | temp F | wind direction | speed MPH | gust MPH | rain 1hr in | rain 24hr in | rain mn in | humidity % | barometer mb |
| 20260504185553 | 68 | 134 | 7.0 | 9.0 | 0.00 | 0.00 | 0.00 | 38 | 1011.2 |
| 20260504185050 | 68 | 224 | 1.0 | 9.0 | 0.00 | 0.00 | 0.00 | 37 | 1011.2 |
| 20260504184545 | 68 | 175 | 2.0 | 11.0 | 0.00 | 0.00 | 0.00 | 37 | 1011.2 |
| 20260504184040 | 68 | 216 | 2.0 | 14.0 | 0.00 | 0.00 | 0.00 | 37 | 1011.4 |
| 20260504183538 | 70 | 157 | 6.0 | 8.0 | 0.00 | 0.00 | 0.00 | 37 | 1011.3 |
| 20260504183036 | 69 | 44 | 2.0 | 6.0 | 0.00 | 0.00 | 0.00 | 38 | 1011.4 |
| 20260504182532 | 69 | 171 | 2.0 | 10.0 | 0.00 | 0.00 | 0.00 | 37 | 1011.4 |
| 20260504182030 | 68 | 165 | 3.0 | 7.0 | 0.00 | 0.00 | 0.00 | 38 | 1011.6 |
| 20260504181527 | 68 | 213 | 5.0 | 6.0 | 0.00 | 0.00 | 0.00 | 39 | 1011.4 |
| 20260504181025 | 68 | 111 | 6.0 | 10.0 | 0.00 | 0.00 | 0.00 | 36 | 1011.7 |
| 20260504180524 | 68 | 261 | 2.0 | 9.0 | 0.00 | 0.00 | 0.00 | 39 | 1011.7 |
| 20260504180022 | 69 | 61 | 2.0 | 11.0 | 0.00 | 0.00 | 0.00 | 36 | 1012.1 |
| 20260504175519 | 68 | 196 | 8.0 | 12.0 | 0.00 | 0.00 | 0.00 | 37 | 1011.9 |
| 20260504175016 | 68 | 142 | 1.0 | 6.0 | 0.00 | 0.00 | 0.00 | 37 | 1011.7 |
| 20260504174514 | 68 | 220 | 4.0 | 6.0 | 0.00 | 0.00 | 0.00 | 34 | 1011.8 |
| 20260504174011 | 68 | 63 | 1.0 | 4.0 | 0.00 | 0.00 | 0.00 | 35 | 1011.9 |
| 20260504173507 | 68 | 183 | 3.0 | 5.0 | 0.00 | 0.00 | 0.00 | 38 | 1012.2 |
| 20260504173005 | 67 | 205 | 4.0 | 7.0 | 0.00 | 0.00 | 0.00 | 36 | 1012.0 |
| 20260504172500 | 68 | 263 | 7.0 | 9.0 | 0.00 | 0.00 | 0.00 | 36 | 1012.1 |
| 20260504171957 | 66 | 291 | 8.0 | 18.0 | 0.00 | 0.00 | 0.00 | 35 | 1012.0 |
| 20260504171454 | 66 | 97 | 5.0 | 6.0 | 0.00 | 0.00 | 0.00 | 36 | 1012.0 |
| 20260504170951 | 66 | 272 | 10.0 | 13.0 | 0.00 | 0.00 | 0.00 | 34 | 1012.1 |
| 20260504170447 | 66 | 307 | 9.0 | 12.0 | 0.00 | 0.00 | 0.00 | 36 | 1012.1 |
| 20260504160407 | 66 | 205 | 3.0 | 7.0 | 0.00 | 0.00 | 0.00 | 35 | 1012.6 |
| 20260504150831 | 63 | 275 | 5.0 | 10.0 | 0.00 | 0.00 | 0.00 | 36 | 1013.2 |
| 20260504150328 | 63 | 275 | 5.0 | 10.0 | 0.00 | 0.00 | 0.00 | 36 | 1013.3 |
| 20260504141258 | 62 | 317 | 7.0 | 8.0 | 0.00 | 0.00 | 0.00 | 39 | 1013.9 |
| 20260504140754 | 62 | 144 | 2.0 | 7.0 | 0.00 | 0.00 | 0.00 | 37 | 1013.9 |
| 20260504140250 | 61 | 284 | 10.0 | 13.0 | 0.00 | 0.00 | 0.00 | 38 | 1014.1 |
| 20260504130719 | 58 | 142 | 2.0 | 5.0 | 0.00 | 0.00 | 0.00 | 47 | 1014.4 |
| 20260504130214 | 57 | 169 | 3.0 | 7.0 | 0.00 | 0.00 | 0.00 | 46 | 1014.5 |
| 20260504120139 | 53 | 228 | 0.0 | 2.0 | 0.00 | 0.00 | 0.00 | 51 | 1015.0 |
| 20260504110606 | 48 | 137 | 5.0 | 6.0 | 0.00 | 0.00 | 0.00 | 57 | 1014.8 |
| 20260504100533 | 46 | 137 | 4.0 | 7.0 | 0.00 | 0.00 | 0.00 | 58 | 1014.2 |
| 20260504081927 | 47 | 158 | 2.0 | 2.0 | 0.00 | 0.00 | 0.00 | 52 | 1013.7 |
| 20260504081424 | 47 | 158 | 2.0 | 2.0 | 0.00 | 0.00 | 0.00 | 52 | 1013.8 |
| 20260504080920 | 47 | 158 | 2.0 | 2.0 | 0.00 | 0.00 | 0.00 | 52 | 1014.0 |
| 20260504080417 | 47 | 158 | 2.0 | 2.0 | 0.00 | 0.00 | 0.00 | 52 | 1013.8 |
| 20260504070344 | 0 | 0.0 | 0.0 | 0.00 | 0.00 | 0.00 | 1013.8 | ||
| 20260504050732 | 0 | 0.0 | 0.0 | 0.00 | 0.00 | 0.00 | 1013.6 | ||
| 20260504050229 | 0 | 0.0 | 0.0 | 0.00 | 0.00 | 0.00 | 1013.5 | ||
| 20260504045726 | 0 | 0.0 | 0.0 | 0.00 | 0.00 | 0.00 | 1013.6 | ||
| 20260504045221 | 0 | 0.0 | 0.0 | 0.00 | 0.00 | 0.00 | 1013.7 | ||
| 20260504044719 | 0 | 0.0 | 0.0 | 0.00 | 0.00 | 0.00 | 1013.8 | ||
| 20260504044217 | 0 | 0.0 | 0.0 | 0.00 | 0.00 | 0.00 | 1013.9 | ||
| 20260504043713 | 0 | 0.0 | 0.0 | 0.00 | 0.00 | 0.00 | 1013.7 | ||
| 20260504043210 | 0 | 0.0 | 0.0 | 0.00 | 0.00 | 0.00 | 1013.6 | ||
| 20260504042708 | 0 | 0.0 | 0.0 | 0.00 | 0.00 | 0.00 | 1013.5 | ||
| 20260504042204 | 0 | 0.0 | 0.0 | 0.00 | 0.00 | 0.00 | 1013.6 | ||
| 20260504041700 | 0 | 0.0 | 0.0 | 0.00 | 0.00 | 0.00 | 1013.6 | ||
| 20260504041155 | 0 | 0.0 | 0.0 | 0.00 | 0.00 | 0.00 | 1013.5 | ||
| 20260504040653 | 0 | 0.0 | 0.0 | 0.00 | 0.00 | 0.00 | 1013.7 | ||
| 20260504040150 | 0 | 0.0 | 0.0 | 0.00 | 0.00 | 0.00 | 1013.4 | ||
| 20260504035646 | 0 | 0.0 | 0.0 | 0.00 | 0.00 | 0.00 | 1013.5 | ||
| 20260504035143 | 0 | 0.0 | 0.0 | 0.00 | 0.00 | 0.00 | 1013.5 | ||
| 20260504034641 | 0 | 0.0 | 0.0 | 0.00 | 0.00 | 0.00 | 1013.3 | ||
| 20260504034138 | 0 | 0.0 | 0.0 | 0.00 | 0.00 | 0.00 | 1013.4 | ||
| 20260504033635 | 0 | 0.0 | 0.0 | 0.00 | 0.00 | 0.00 | 1013.3 | ||
| 20260504033133 | 0 | 0.0 | 0.0 | 0.00 | 0.00 | 0.00 | 1013.3 | ||
| 20260504032629 | 0 | 0.0 | 0.0 | 0.00 | 0.00 | 0.00 | 1013.3 | ||
| 20260504032126 | 0 | 0.0 | 0.0 | 0.00 | 0.00 | 0.00 | 1013.4 | ||
| 20260504031623 | 0 | 0.0 | 0.0 | 0.00 | 0.00 | 0.00 | 1013.2 | ||
| 20260504031119 | 0 | 0.0 | 0.0 | 0.00 | 0.00 | 0.00 | 1013.3 | ||
| 20260504030617 | 0 | 0.0 | 0.0 | 0.00 | 0.00 | 0.00 | 1013.4 | ||
| 20260504030114 | 0 | 0.0 | 0.0 | 0.00 | 0.00 | 0.00 | 1013.4 | ||
| 20260504025611 | 0 | 0.0 | 0.0 | 0.00 | 0.00 | 0.00 | 1013.2 | ||
| 20260504025108 | 0 | 0.0 | 0.0 | 0.00 | 0.00 | 0.00 | 1013.3 | ||
| 20260504024605 | 0 | 0.0 | 0.0 | 0.00 | 0.00 | 0.00 | 1013.4 | ||
| 20260504024101 | 0 | 0.0 | 0.0 | 0.00 | 0.00 | 0.00 | 1013.2 | ||
| 20260504023557 | 0 | 0.0 | 0.0 | 0.00 | 0.00 | 0.00 | 1013.3 | ||
| 20260504023053 | 0 | 0.0 | 0.0 | 0.00 | 0.00 | 0.00 | 1013.2 | ||
| 20260504022550 | 0 | 0.0 | 0.0 | 0.00 | 0.00 | 0.00 | 1013.3 | ||
| 20260504022046 | 0 | 0.0 | 0.0 | 0.00 | 0.00 | 0.00 | 1013.3 | ||
| 20260504021543 | 0 | 0.0 | 0.0 | 0.00 | 0.00 | 0.00 | 1013.2 | ||
| 20260504021040 | 0 | 0.0 | 0.0 | 0.00 | 0.00 | 0.00 | 1013.3 | ||
| 20260504020537 | 0 | 0.0 | 0.0 | 0.00 | 0.00 | 0.00 | 1013.2 | ||
| 20260504020034 | 0 | 0.0 | 0.0 | 0.00 | 0.00 | 0.00 | 1013.1 | ||
| 20260504015531 | 46 | 117 | 2.0 | 3.0 | 0.00 | 0.00 | 0.00 | 56 | 1012.9 |
| 20260504015027 | 46 | 117 | 2.0 | 3.0 | 0.00 | 0.00 | 0.00 | 56 | 1013.1 |
| 20260504014523 | 46 | 117 | 2.0 | 3.0 | 0.00 | 0.00 | 0.00 | 56 | 1013.1 |
| 20260504014020 | 46 | 117 | 2.0 | 3.0 | 0.00 | 0.00 | 0.00 | 56 | 1012.9 |
| 20260504013518 | 46 | 117 | 2.0 | 3.0 | 0.00 | 0.00 | 0.00 | 56 | 1013.0 |
| 20260504013015 | 46 | 117 | 2.0 | 3.0 | 0.00 | 0.00 | 0.00 | 56 | 1012.8 |
| 20260504012512 | 46 | 117 | 2.0 | 3.0 | 0.00 | 0.00 | 0.00 | 56 | 1012.8 |
| 20260504012009 | 46 | 117 | 2.0 | 3.0 | 0.00 | 0.00 | 0.00 | 56 | 1012.8 |
| 20260504011506 | 46 | 117 | 2.0 | 3.0 | 0.00 | 0.00 | 0.00 | 56 | 1012.7 |
| 20260504011001 | 46 | 117 | 2.0 | 3.0 | 0.00 | 0.00 | 0.00 | 56 | 1012.8 |
| 20260504010458 | 46 | 117 | 2.0 | 3.0 | 0.00 | 0.00 | 0.00 | 56 | 1012.7 |
| 20260504005953 | 46 | 117 | 2.0 | 3.0 | 0.00 | 0.00 | 0.00 | 56 | 1012.6 |
| 20260504005450 | 46 | 127 | 2.0 | 2.0 | 0.00 | 0.00 | 0.00 | 55 | 1012.4 |
| 20260504004948 | 46 | 127 | 2.0 | 2.0 | 0.00 | 0.00 | 0.00 | 55 | 1012.3 |
| 20260504004446 | 46 | 121 | 3.0 | 3.0 | 0.00 | 0.00 | 0.00 | 54 | 1012.1 |
| 20260504003943 | 46 | 117 | 2.0 | 3.0 | 0.00 | 0.00 | 0.00 | 53 | 1012.0 |
| 20260504003438 | 47 | 104 | 2.0 | 2.0 | 0.00 | 0.00 | 0.00 | 53 | 1012.1 |
| 20260504002935 | 47 | 106 | 2.0 | 2.0 | 0.00 | 0.00 | 0.00 | 52 | 1011.9 |
| 20260504002432 | 48 | 120 | 2.0 | 3.0 | 0.00 | 0.00 | 0.00 | 54 | 1011.8 |
| 20260504001930 | 49 | 93 | 3.0 | 3.0 | 0.00 | 0.00 | 0.00 | 45 | 1011.7 |
| 20260504001427 | 49 | 93 | 3.0 | 3.0 | 0.00 | 0.00 | 0.00 | 45 | 1011.9 |
| 20260504000924 | 49 | 93 | 3.0 | 3.0 | 0.00 | 0.00 | 0.00 | 45 | 1011.7 |
| 20260504000423 | 49 | 93 | 3.0 | 3.0 | 0.00 | 0.00 | 0.00 | 45 | 1011.7 |
| 20260503235918 | 50 | 111 | 2.0 | 2.0 | 0.00 | 0.00 | 0.00 | 43 | 1011.6 |
| 20260503235416 | 51 | 85 | 2.0 | 2.0 | 0.00 | 0.00 | 0.00 | 40 | 1011.6 |
| 20260503234913 | 52 | 53 | 0.0 | 0.0 | 0.00 | 0.00 | 0.00 | 37 | 1011.5 |
| 20260503234411 | 52 | 53 | 0.0 | 1.0 | 0.00 | 0.00 | 0.00 | 38 | 1011.4 |
| 20260503233908 | 52 | 289 | 3.0 | 3.0 | 0.00 | 0.00 | 0.00 | 37 | 1011.6 |
| 20260503233405 | 53 | 12 | 2.0 | 4.0 | 0.00 | 0.00 | 0.00 | 37 | 1011.4 |
| 20260503232901 | 53 | 237 | 2.0 | 4.0 | 0.00 | 0.00 | 0.00 | 37 | 1011.3 |
| 20260503232358 | 54 | 289 | 2.0 | 4.0 | 0.00 | 0.00 | 0.00 | 36 | 1011.2 |
| 20260503231856 | 54 | 316 | 2.0 | 6.0 | 0.00 | 0.00 | 0.00 | 37 | 1011.4 |
| 20260503231353 | 55 | 262 | 2.0 | 5.0 | 0.00 | 0.00 | 0.00 | 35 | 1011.4 |
| 20260503230849 | 55 | 312 | 4.0 | 6.0 | 0.00 | 0.00 | 0.00 | 34 | 1011.3 |
| 20260503230346 | 55 | 262 | 4.0 | 7.0 | 0.00 | 0.00 | 0.00 | 35 | 1011.3 |
| 20260503225844 | 55 | 10 | 2.0 | 6.0 | 0.00 | 0.00 | 0.00 | 35 | 1011.2 |
| 20260503225339 | 55 | 3 | 6.0 | 7.0 | 0.00 | 0.00 | 0.00 | 35 | 1011.2 |
| 20260503224836 | 55 | 235 | 3.0 | 9.0 | 0.00 | 0.00 | 0.00 | 34 | 1011.2 |
| 20260503224333 | 55 | 294 | 5.0 | 8.0 | 0.00 | 0.00 | 0.00 | 34 | 1011.2 |
| 20260503223832 | 55 | 337 | 2.0 | 6.0 | 0.00 | 0.00 | 0.00 | 34 | 1011.0 |
| 20260503223329 | 55 | 288 | 9.0 | 14.0 | 0.00 | 0.00 | 0.00 | 35 | 1011.2 |
| 20260503222824 | 55 | 296 | 3.0 | 7.0 | 0.00 | 0.00 | 0.00 | 36 | 1011.2 |
| 20260503222323 | 55 | 350 | 5.0 | 10.0 | 0.00 | 0.00 | 0.00 | 35 | 1010.9 |
| 20260503221820 | 55 | 334 | 5.0 | 13.0 | 0.00 | 0.00 | 0.00 | 35 | 1010.9 |
| 20260503221319 | 55 | 18 | 2.0 | 6.0 | 0.00 | 0.00 | 0.00 | 38 | 1010.8 |
| 20260503220814 | 55 | 295 | 6.0 | 9.0 | 0.00 | 0.00 | 0.00 | 35 | 1011.0 |
| 20260503220312 | 55 | 318 | 3.0 | 4.0 | 0.00 | 0.00 | 0.00 | 35 | 1010.9 |
| 20260503215808 | 55 | 288 | 3.0 | 6.0 | 0.00 | 0.00 | 0.00 | 35 | 1011.0 |
| 20260503215305 | 55 | 234 | 3.0 | 11.0 | 0.00 | 0.00 | 0.00 | 35 | 1010.9 |
| 20260503214803 | 55 | 279 | 4.0 | 9.0 | 0.00 | 0.00 | 0.00 | 36 | 1011.0 |
| 20260503214300 | 55 | 297 | 12.0 | 15.0 | 0.00 | 0.00 | 0.00 | 35 | 1011.2 |
| 20260503213758 | 55 | 294 | 4.0 | 11.0 | 0.00 | 0.00 | 0.00 | 36 | 1010.8 |
| 20260503213255 | 55 | 295 | 13.0 | 16.0 | 0.00 | 0.00 | 0.00 | 36 | 1011.0 |
| 20260503212752 | 54 | 279 | 10.0 | 16.0 | 0.00 | 0.00 | 0.00 | 36 | 1011.0 |
| 20260503212249 | 55 | 287 | 5.0 | 7.0 | 0.00 | 0.00 | 0.00 | 37 | 1011.2 |
| 20260503211747 | 54 | 259 | 6.0 | 9.0 | 0.00 | 0.00 | 0.00 | 36 | 1011.2 |
| 20260503211243 | 54 | 324 | 6.0 | 7.0 | 0.00 | 0.00 | 0.00 | 36 | 1010.9 |
| 20260503210738 | 53 | 301 | 8.0 | 12.0 | 0.00 | 0.00 | 0.00 | 36 | 1010.8 |
| 20260503210236 | 54 | 339 | 2.0 | 4.0 | 0.00 | 0.00 | 0.00 | 39 | 1010.9 |
| 20260503205731 | 54 | 318 | 12.0 | 16.0 | 0.00 | 0.00 | 0.00 | 36 | 1010.9 |
| 20260503205227 | 54 | 330 | 13.0 | 14.0 | 0.00 | 0.00 | 0.00 | 37 | 1010.8 |
| 20260503204724 | 54 | 338 | 13.0 | 18.0 | 0.00 | 0.00 | 0.00 | 37 | 1011.0 |
| 20260503204222 | 53 | 334 | 8.0 | 14.0 | 0.00 | 0.00 | 0.00 | 37 | 1010.8 |
| 20260503203719 | 0 | 280 | 30.0 | 45.0 | 0.00 | 0.00 | 0.00 | 1010.9 | |
| 20260503203216 | 53 | 282 | 6.0 | 11.0 | 0.00 | 0.00 | 0.00 | 40 | 1010.6 |
| 20260503202714 | 55 | 101 | 2.0 | 7.0 | 0.00 | 0.00 | 0.00 | 37 | 1010.8 |
| 20260503202212 | 53 | 306 | 10.0 | 21.0 | 0.00 | 0.00 | 0.00 | 38 | 1010.8 |
| 20260503201709 | 52 | 259 | 7.0 | 19.0 | 0.00 | 0.00 | 0.00 | 38 | 1010.9 |
| 20260503201206 | 51 | 289 | 11.0 | 15.0 | 0.00 | 0.00 | 0.00 | 38 | 1010.8 |
| 20260503200703 | 51 | 298 | 11.0 | 16.0 | 0.00 | 0.00 | 0.00 | 38 | 1010.8 |
| 20260503200159 | 52 | 10 | 12.0 | 13.0 | 0.00 | 0.00 | 0.00 | 38 | 1010.8 |
| 20260503195656 | 53 | 273 | 7.0 | 20.0 | 0.00 | 0.00 | 0.00 | 39 | 1010.9 |
| 20260503195153 | 53 | 326 | 9.0 | 13.0 | 0.00 | 0.00 | 0.00 | 40 | 1010.8 |
| 20260503194644 | 51 | 330 | 9.0 | 24.0 | 0.00 | 0.00 | 0.00 | 39 | 1010.7 |
| 20260503194139 | 53 | 267 | 10.0 | 20.0 | 0.00 | 0.00 | 0.00 | 39 | 1010.6 |
| 20260503193637 | 51 | 254 | 12.0 | 17.0 | 0.00 | 0.00 | 0.00 | 39 | 1010.7 |
| 20260503193132 | 53 | 285 | 6.0 | 15.0 | 0.00 | 0.00 | 0.00 | 38 | 1010.5 |
| 20260503192628 | 52 | 322 | 10.0 | 12.0 | 0.00 | 0.00 | 0.00 | 38 | 1010.7 |
| 20260503192123 | 54 | 318 | 5.0 | 12.0 | 0.00 | 0.00 | 0.00 | 38 | 1010.4 |
| 20260503191615 | 53 | 282 | 6.0 | 14.0 | 0.00 | 0.00 | 0.00 | 38 | 1010.6 |
| 20260503191112 | 54 | 305 | 4.0 | 14.0 | 0.00 | 0.00 | 0.00 | 39 | 1010.5 |
| 20260503190609 | 53 | 234 | 9.0 | 19.0 | 0.00 | 0.00 | 0.00 | 39 | 1010.6 |
| 20260503190106 | 51 | 286 | 12.0 | 20.0 | 0.00 | 0.00 | 0.00 | 39 | 1010.2 |